Time,TemperatureF,DewpointF,PressureIn,WindDirection,WindDirectionDegrees,WindSpeedMPH,WindSpeedGustMPH,Humidity,HourlyPrecipIn,Conditions,Clouds,dailyrainin,SoftwareType,DateUTC
2015-01-29 00:02:00,59.6,49.4,30.05,WNW,292,0.0,0.0,69,0.00,,,0.00,Wunderground v.1.15,2015-01-29 07:02:00,
2015-01-29 00:08:00,59.3,49.5,30.05,WNW,292,0.0,0.0,70,0.00,,,0.00,Wunderground v.1.15,2015-01-29 07:08:00,
2015-01-29 00:14:00,59.1,49.3,30.05,WNW,292,0.0,0.0,70,0.00,,,0.00,Wunderground v.1.15,2015-01-29 07:14:00,
2015-01-29 00:19:00,59.0,49.2,30.05,WNW,292,0.0,0.0,70,0.00,,,0.00,Wunderground v.1.15,2015-01-29 07:19:00,
2015-01-29 00:24:00,58.8,49.4,30.05,WNW,292,0.0,0.0,71,0.00,,,0.00,Wunderground v.1.15,2015-01-29 07:24:00,
2015-01-29 00:31:00,58.6,49.6,30.05,WNW,292,0.0,0.0,72,0.00,,,0.00,Wunderground v.1.15,2015-01-29 07:31:00,
2015-01-29 00:36:00,58.4,49.4,30.05,WNW,292,0.0,0.0,72,0.00,,,0.00,Wunderground v.1.15,2015-01-29 07:36:00,
2015-01-29 00:42:00,58.2,50.0,30.05,WNW,292,0.0,0.0,74,0.00,,,0.00,Wunderground v.1.15,2015-01-29 07:42:00,
2015-01-29 00:47:00,58.2,50.3,30.05,WNW,292,0.0,0.0,75,0.00,,,0.00,Wunderground v.1.15,2015-01-29 07:47:00,
2015-01-29 00:52:00,58.0,50.5,30.05,WNW,292,0.0,0.0,76,0.00,,,0.00,Wunderground v.1.15,2015-01-29 07:52:00,
2015-01-29 00:58:00,57.9,50.4,30.05,WNW,292,0.0,0.0,76,0.00,,,0.00,Wunderground v.1.15,2015-01-29 07:58:00,
2015-01-29 01:04:00,57.8,49.9,30.05,WNW,292,0.0,0.0,75,0.00,,,0.00,Wunderground v.1.15,2015-01-29 08:04:00,
2015-01-29 01:10:00,57.8,50.3,30.05,WNW,292,0.0,0.0,76,0.00,,,0.00,Wunderground v.1.15,2015-01-29 08:10:00,
2015-01-29 01:16:00,57.7,50.2,30.04,WNW,292,0.0,0.0,76,0.00,,,0.00,Wunderground v.1.15,2015-01-29 08:16:00,
2015-01-29 01:22:00,57.6,50.1,30.05,WNW,292,0.0,0.0,76,0.00,,,0.00,Wunderground v.1.15,2015-01-29 08:22:00,
2015-01-29 01:27:00,57.6,50.4,30.05,WNW,292,0.0,0.0,77,0.00,,,0.00,Wunderground v.1.15,2015-01-29 08:27:00,
2015-01-29 01:33:00,57.5,50.3,30.05,WNW,292,0.0,0.0,77,0.00,,,0.00,Wunderground v.1.15,2015-01-29 08:33:00,
2015-01-29 01:39:00,57.4,50.2,30.05,WNW,292,0.0,0.0,77,0.00,,,0.00,Wunderground v.1.15,2015-01-29 08:39:00,
2015-01-29 01:45:00,57.3,50.1,30.05,WNW,292,0.0,0.0,77,0.00,,,0.00,Wunderground v.1.15,2015-01-29 08:45:00,
2015-01-29 01:50:00,57.3,50.5,30.05,WNW,292,0.0,0.0,78,0.00,,,0.00,Wunderground v.1.15,2015-01-29 08:50:00,
2015-01-29 01:55:00,57.2,50.7,30.05,WNW,292,0.0,0.0,79,0.00,,,0.00,Wunderground v.1.15,2015-01-29 08:55:00,
2015-01-29 02:00:00,57.1,50.6,30.05,WNW,292,0.0,0.0,79,0.00,,,0.00,Wunderground v.1.15,2015-01-29 09:00:00,
2015-01-29 02:05:00,57.1,50.6,30.05,WNW,292,0.0,0.0,79,0.00,,,0.00,Wunderground v.1.15,2015-01-29 09:05:00,
2015-01-29 02:10:00,57.1,50.6,30.04,WNW,292,0.0,0.0,79,0.00,,,0.00,Wunderground v.1.15,2015-01-29 09:10:00,
2015-01-29 02:15:00,57.0,50.2,30.04,WNW,292,0.0,0.0,78,0.00,,,0.00,Wunderground v.1.15,2015-01-29 09:15:00,
2015-01-29 02:20:00,57.0,50.5,30.04,WNW,292,0.0,0.0,79,0.00,,,0.00,Wunderground v.1.15,2015-01-29 09:20:00,
2015-01-29 02:25:00,56.9,50.1,30.04,WNW,292,0.0,0.0,78,0.00,,,0.00,Wunderground v.1.15,2015-01-29 09:25:00,
2015-01-29 02:30:00,56.9,50.5,30.04,WNW,292,0.0,0.0,79,0.00,,,0.00,Wunderground v.1.15,2015-01-29 09:30:00,
2015-01-29 02:35:00,56.8,50.4,30.04,WNW,292,0.0,0.0,79,0.00,,,0.00,Wunderground v.1.15,2015-01-29 09:35:00,
2015-01-29 02:40:00,56.7,50.3,30.04,WNW,292,0.0,0.0,79,0.00,,,0.00,Wunderground v.1.15,2015-01-29 09:40:00,
2015-01-29 02:45:00,56.6,50.5,30.03,WNW,292,0.0,0.0,80,0.00,,,0.00,Wunderground v.1.15,2015-01-29 09:45:00,
2015-01-29 02:50:00,56.6,50.5,30.03,WNW,292,0.0,0.0,80,0.00,,,0.00,Wunderground v.1.15,2015-01-29 09:50:00,
2015-01-29 02:55:00,56.5,50.4,30.03,WNW,292,0.0,0.0,80,0.00,,,0.00,Wunderground v.1.15,2015-01-29 09:55:00,
2015-01-29 03:00:00,56.5,50.7,30.02,WNW,292,0.0,0.0,81,0.00,,,0.00,Wunderground v.1.15,2015-01-29 10:00:00,
2015-01-29 03:05:00,56.4,50.6,30.02,WNW,292,0.0,0.0,81,0.00,,,0.00,Wunderground v.1.15,2015-01-29 10:05:00,
2015-01-29 03:10:00,56.4,50.6,30.02,WNW,292,0.0,0.0,81,0.00,,,0.00,Wunderground v.1.15,2015-01-29 10:10:00,
2015-01-29 03:15:00,56.3,50.5,30.02,WNW,292,0.0,0.0,81,0.00,,,0.00,Wunderground v.1.15,2015-01-29 10:15:00,
2015-01-29 03:20:00,56.3,50.5,30.02,WNW,292,0.0,0.0,81,0.00,,,0.00,Wunderground v.1.15,2015-01-29 10:20:00,
2015-01-29 03:25:00,56.3,50.9,30.02,WNW,292,0.0,0.0,82,0.00,,,0.00,Wunderground v.1.15,2015-01-29 10:25:00,
2015-01-29 03:30:00,56.3,50.9,30.02,WNW,292,0.0,0.0,82,0.00,,,0.00,Wunderground v.1.15,2015-01-29 10:30:00,
2015-01-29 03:35:00,56.3,50.9,30.02,WNW,292,0.0,0.0,82,0.00,,,0.00,Wunderground v.1.15,2015-01-29 10:35:00,
2015-01-29 03:40:00,56.2,50.4,30.01,WNW,292,0.0,0.0,81,0.00,,,0.00,Wunderground v.1.15,2015-01-29 10:40:00,
2015-01-29 03:45:00,56.2,50.4,30.01,WNW,292,0.0,0.0,81,0.00,,,0.00,Wunderground v.1.15,2015-01-29 10:45:00,
2015-01-29 03:50:00,56.2,50.4,30.01,WNW,292,0.0,0.0,81,0.00,,,0.00,Wunderground v.1.15,2015-01-29 10:50:00,
2015-01-29 03:55:00,56.2,50.4,30.01,WNW,292,0.0,0.0,81,0.00,,,0.00,Wunderground v.1.15,2015-01-29 10:55:00,
2015-01-29 04:00:00,56.1,50.3,30.01,WNW,292,0.0,0.0,81,0.00,,,0.00,Wunderground v.1.15,2015-01-29 11:00:00,
2015-01-29 04:05:00,56.0,50.3,30.01,WNW,292,0.0,0.0,81,0.00,,,0.00,Wunderground v.1.15,2015-01-29 11:05:00,
2015-01-29 04:10:00,55.9,50.2,30.01,WNW,292,0.0,0.0,81,0.00,,,0.00,Wunderground v.1.15,2015-01-29 11:10:00,
2015-01-29 04:16:00,55.7,50.0,30.01,WNW,292,0.0,0.0,81,0.00,,,0.00,Wunderground v.1.15,2015-01-29 11:16:00,
2015-01-29 04:21:00,55.6,50.2,30.01,WNW,292,0.0,0.0,82,0.00,,,0.00,Wunderground v.1.15,2015-01-29 11:21:00,
2015-01-29 04:26:00,55.4,50.0,30.01,WNW,292,0.0,0.0,82,0.00,,,0.00,Wunderground v.1.15,2015-01-29 11:26:00,
2015-01-29 04:31:00,55.3,49.9,30.01,WNW,292,0.0,0.0,82,0.00,,,0.00,Wunderground v.1.15,2015-01-29 11:31:00,
2015-01-29 04:35:00,55.1,49.7,30.01,WNW,292,0.0,0.0,82,0.00,,,0.00,Wunderground v.1.15,2015-01-29 11:35:00,
2015-01-29 04:41:00,54.9,49.8,30.00,WNW,292,0.0,0.0,83,0.00,,,0.00,Wunderground v.1.15,2015-01-29 11:41:00,
2015-01-29 04:46:00,54.8,49.4,30.01,WNW,292,0.0,0.0,82,0.00,,,0.00,Wunderground v.1.15,2015-01-29 11:46:00,
2015-01-29 04:51:00,54.6,49.5,30.00,WNW,292,0.0,0.0,83,0.00,,,0.00,Wunderground v.1.15,2015-01-29 11:51:00,
2015-01-29 04:56:00,54.5,49.4,30.00,WNW,292,0.0,0.0,83,0.00,,,0.00,Wunderground v.1.15,2015-01-29 11:56:00,
2015-01-29 05:01:00,54.4,49.3,30.00,WNW,292,0.0,0.0,83,0.00,,,0.00,Wunderground v.1.15,2015-01-29 12:01:00,
2015-01-29 05:06:00,54.2,49.1,30.00,WNW,292,0.0,0.0,83,0.00,,,0.00,Wunderground v.1.15,2015-01-29 12:06:00,
2015-01-29 05:11:00,54.1,49.1,30.00,WNW,292,0.0,0.0,83,0.00,,,0.00,Wunderground v.1.15,2015-01-29 12:11:00,
2015-01-29 05:16:00,54.0,49.3,30.00,WNW,292,0.0,0.0,84,0.00,,,0.00,Wunderground v.1.15,2015-01-29 12:16:00,
2015-01-29 05:21:00,53.8,49.1,30.00,WNW,292,0.0,0.0,84,0.00,,,0.00,Wunderground v.1.15,2015-01-29 12:21:00,
2015-01-29 05:26:00,53.6,48.9,29.99,WNW,292,0.0,0.0,84,0.00,,,0.00,Wunderground v.1.15,2015-01-29 12:26:00,
2015-01-29 05:31:00,53.4,48.7,29.99,WNW,292,0.0,0.0,84,0.00,,,0.00,Wunderground v.1.15,2015-01-29 12:31:00,
2015-01-29 05:36:00,53.2,48.5,29.99,WNW,292,0.0,0.0,84,0.00,,,0.00,Wunderground v.1.15,2015-01-29 12:36:00,
2015-01-29 05:41:00,53.1,48.4,30.00,WNW,292,0.0,0.0,84,0.00,,,0.00,Wunderground v.1.15,2015-01-29 12:41:00,
2015-01-29 05:46:00,52.9,48.5,30.00,WNW,292,0.0,0.0,85,0.00,,,0.00,Wunderground v.1.15,2015-01-29 12:46:00,
2015-01-29 05:51:00,52.7,48.3,30.00,WNW,292,0.0,0.0,85,0.00,,,0.00,Wunderground v.1.15,2015-01-29 12:51:00,
2015-01-29 05:56:00,52.6,48.2,30.00,WNW,292,0.0,0.0,85,0.00,,,0.00,Wunderground v.1.15,2015-01-29 12:56:00,
2015-01-29 06:01:00,52.4,48.3,30.00,WNW,292,0.0,0.0,86,0.00,,,0.00,Wunderground v.1.15,2015-01-29 13:01:00,
2015-01-29 06:06:00,52.3,48.2,30.00,WNW,292,0.0,0.0,86,0.00,,,0.00,Wunderground v.1.15,2015-01-29 13:06:00,
2015-01-29 06:11:00,52.2,48.1,30.00,WNW,292,0.0,0.0,86,0.00,,,0.00,Wunderground v.1.15,2015-01-29 13:11:00,
2015-01-29 06:16:00,52.2,48.1,30.00,WNW,292,0.0,0.0,86,0.00,,,0.00,Wunderground v.1.15,2015-01-29 13:16:00,
2015-01-29 06:21:00,52.1,48.0,30.00,WNW,292,0.0,0.0,86,0.00,,,0.00,Wunderground v.1.15,2015-01-29 13:21:00,
2015-01-29 06:26:00,52.1,48.0,30.00,WNW,292,0.0,0.0,86,0.00,,,0.00,Wunderground v.1.15,2015-01-29 13:26:00,
2015-01-29 06:31:00,52.1,48.0,30.00,WNW,292,0.0,0.0,86,0.00,,,0.00,Wunderground v.1.15,2015-01-29 13:31:00,
2015-01-29 06:36:00,52.1,48.3,30.00,WNW,292,0.0,0.0,87,0.00,,,0.00,Wunderground v.1.15,2015-01-29 13:36:00,
2015-01-29 06:41:00,52.1,48.3,30.00,WNW,292,0.0,0.0,87,0.00,,,0.00,Wunderground v.1.15,2015-01-29 13:41:00,
2015-01-29 06:46:00,52.2,48.1,30.00,WNW,292,0.0,0.0,86,0.00,,,0.00,Wunderground v.1.15,2015-01-29 13:46:00,
2015-01-29 06:51:00,52.2,48.1,30.00,WNW,292,0.0,0.0,86,0.00,,,0.00,Wunderground v.1.15,2015-01-29 13:51:00,
2015-01-29 06:56:00,52.2,48.1,30.00,WNW,292,0.0,0.0,86,0.00,,,0.00,Wunderground v.1.15,2015-01-29 13:56:00,
2015-01-29 07:01:00,52.3,47.9,30.01,WNW,292,0.0,0.0,85,0.00,,,0.00,Wunderground v.1.15,2015-01-29 14:01:00,
2015-01-29 07:06:00,52.4,48.0,30.01,WNW,292,0.0,0.0,85,0.00,,,0.00,Wunderground v.1.15,2015-01-29 14:06:00,
2015-01-29 07:11:00,52.4,48.0,30.00,WNW,292,0.0,0.0,85,0.00,,,0.00,Wunderground v.1.15,2015-01-29 14:11:00,
2015-01-29 07:16:00,52.4,48.0,30.01,WNW,292,0.0,0.0,85,0.00,,,0.00,Wunderground v.1.15,2015-01-29 14:16:00,
2015-01-29 07:21:00,52.5,48.1,30.00,WNW,292,0.0,0.0,85,0.00,,,0.00,Wunderground v.1.15,2015-01-29 14:21:00,
2015-01-29 07:26:00,52.5,48.1,30.00,WNW,292,0.0,0.0,85,0.00,,,0.00,Wunderground v.1.15,2015-01-29 14:26:00,
2015-01-29 07:31:00,52.6,48.2,30.01,WNW,292,0.0,0.0,85,0.00,,,0.00,Wunderground v.1.15,2015-01-29 14:31:00,
2015-01-29 07:37:00,52.6,48.2,30.01,WNW,292,0.0,0.0,85,0.00,,,0.00,Wunderground v.1.15,2015-01-29 14:37:00,
2015-01-29 07:42:00,52.6,48.2,30.00,WNW,292,0.0,0.0,85,0.00,,,0.00,Wunderground v.1.15,2015-01-29 14:42:00,
2015-01-29 07:47:00,52.7,48.3,30.00,WNW,292,0.0,0.0,85,0.00,,,0.00,Wunderground v.1.15,2015-01-29 14:47:00,
2015-01-29 07:52:00,52.8,48.4,30.00,WNW,292,0.0,0.0,85,0.00,,,0.00,Wunderground v.1.15,2015-01-29 14:52:00,
2015-01-29 07:57:00,52.9,48.5,30.00,WNW,292,0.0,0.0,85,0.00,,,0.00,Wunderground v.1.15,2015-01-29 14:57:00,
2015-01-29 08:02:00,53.0,48.6,30.00,WNW,292,0.0,0.0,85,0.00,,,0.00,Wunderground v.1.15,2015-01-29 15:02:00,
2015-01-29 08:07:00,53.2,48.5,30.00,WNW,292,0.0,0.0,84,0.00,,,0.00,Wunderground v.1.15,2015-01-29 15:07:00,
2015-01-29 08:12:00,53.3,48.6,30.00,WNW,292,0.0,0.0,84,0.00,,,0.00,Wunderground v.1.15,2015-01-29 15:12:00,
2015-01-29 08:17:00,53.3,48.6,30.00,WNW,292,0.0,0.0,84,0.00,,,0.00,Wunderground v.1.15,2015-01-29 15:17:00,
2015-01-29 08:22:00,53.5,48.8,30.00,WNW,292,0.0,0.0,84,0.00,,,0.00,Wunderground v.1.15,2015-01-29 15:22:00,
2015-01-29 08:27:00,53.7,49.0,30.00,WNW,292,0.0,0.0,84,0.00,,,0.00,Wunderground v.1.15,2015-01-29 15:27:00,
2015-01-29 08:32:00,53.8,49.1,30.00,WNW,292,3.0,3.0,84,0.00,,,0.00,Wunderground v.1.15,2015-01-29 15:32:00,
2015-01-29 08:37:00,54.1,49.1,30.00,WNW,292,2.0,3.0,83,0.00,,,0.00,Wunderground v.1.15,2015-01-29 15:37:00,
2015-01-29 08:42:00,54.5,49.1,30.00,WNW,292,1.0,2.0,82,0.00,,,0.00,Wunderground v.1.15,2015-01-29 15:42:00,
2015-01-29 08:47:00,54.8,49.4,30.00,WNW,292,3.0,4.0,82,0.00,,,0.00,Wunderground v.1.15,2015-01-29 15:47:00,
2015-01-29 08:52:00,55.3,49.6,30.00,SSW,212,6.0,7.0,81,0.00,,,0.00,Wunderground v.1.15,2015-01-29 15:52:00,
2015-01-29 08:57:00,55.8,49.4,30.00,SE,144,8.0,11.0,79,0.00,,,0.00,Wunderground v.1.15,2015-01-29 15:57:00,
2015-01-29 09:02:00,56.6,49.8,30.00,SE,127,10.0,10.0,78,0.00,,,0.00,Wunderground v.1.15,2015-01-29 16:02:00,
2015-01-29 09:07:00,57.2,49.3,30.00,SE,131,8.0,16.0,75,0.00,,,0.00,Wunderground v.1.15,2015-01-29 16:07:00,
2015-01-29 09:12:00,57.4,49.5,30.01,SE,128,4.0,8.0,75,0.00,,,0.00,Wunderground v.1.15,2015-01-29 16:12:00,
2015-01-29 09:17:00,57.4,49.2,30.01,SE,144,0.0,8.0,74,0.00,,,0.00,Wunderground v.1.15,2015-01-29 16:17:00,
2015-01-29 09:22:00,57.4,49.2,30.01,SE,140,2.0,5.0,74,0.00,,,0.00,Wunderground v.1.15,2015-01-29 16:22:00,
2015-01-29 09:27:00,57.4,49.2,30.02,SE,138,0.0,5.0,74,0.00,,,0.00,Wunderground v.1.15,2015-01-29 16:27:00,
2015-01-29 09:32:00,57.3,48.7,30.03,SE,136,4.0,5.0,73,0.00,,,0.00,Wunderground v.1.15,2015-01-29 16:32:00,
2015-01-29 09:37:00,57.3,48.7,30.03,SE,136,0.0,5.0,73,0.00,,,0.00,Wunderground v.1.15,2015-01-29 16:37:00,
2015-01-29 09:42:00,57.3,48.7,30.03,SE,136,0.0,0.0,73,0.00,,,0.00,Wunderground v.1.15,2015-01-29 16:42:00,
2015-01-29 09:47:00,57.5,48.5,30.02,SE,125,0.0,5.0,72,0.00,,,0.00,Wunderground v.1.15,2015-01-29 16:47:00,
2015-01-29 09:52:00,57.6,48.6,30.03,SE,125,0.0,1.0,72,0.00,,,0.00,Wunderground v.1.15,2015-01-29 16:52:00,
2015-01-29 09:57:00,57.7,48.7,30.03,SE,125,0.0,2.0,72,0.00,,,0.00,Wunderground v.1.15,2015-01-29 16:57:00,
2015-01-29 10:02:00,58.0,48.6,30.02,SE,125,0.0,4.0,71,0.00,,,0.00,Wunderground v.1.15,2015-01-29 17:02:00,
2015-01-29 10:07:00,58.5,48.7,30.02,SE,128,0.0,6.0,70,0.00,,,0.00,Wunderground v.1.15,2015-01-29 17:07:00,
2015-01-29 10:12:00,58.9,49.1,30.02,SE,130,0.0,3.0,70,0.00,,,0.00,Wunderground v.1.15,2015-01-29 17:12:00,
2015-01-29 10:17:00,59.4,49.2,30.02,SE,130,0.0,4.0,69,0.00,,,0.00,Wunderground v.1.15,2015-01-29 17:17:00,
2015-01-29 10:22:00,59.9,49.3,30.02,SE,139,4.0,4.0,68,0.00,,,0.00,Wunderground v.1.15,2015-01-29 17:22:00,
2015-01-29 10:27:00,60.4,49.0,30.02,SE,141,0.0,5.0,66,0.00,,,0.00,Wunderground v.1.15,2015-01-29 17:27:00,
2015-01-29 10:32:00,60.8,49.4,30.02,SE,141,0.0,2.0,66,0.00,,,0.00,Wunderground v.1.15,2015-01-29 17:32:00,
2015-01-29 10:35:00,61.0,49.1,30.02,SE,142,1.0,2.0,65,0.00,,,0.00,Wunderground v.1.15,2015-01-29 17:35:00,
2015-01-29 10:40:00,61.4,49.1,30.02,SE,141,1.0,1.0,64,0.00,,,0.00,Wunderground v.1.15,2015-01-29 17:40:00,
2015-01-29 10:45:00,62.3,48.2,30.02,SE,142,2.0,5.0,60,0.00,,,0.00,Wunderground v.1.15,2015-01-29 17:45:00,
2015-01-29 10:50:00,63.8,47.8,30.02,SE,146,4.0,6.0,56,0.00,,,0.00,Wunderground v.1.15,2015-01-29 17:50:00,
2015-01-29 10:54:00,64.9,48.3,30.02,SE,146,3.0,8.0,55,0.00,,,0.00,Wunderground v.1.15,2015-01-29 17:54:00,
2015-01-29 10:59:00,66.1,48.5,30.02,SE,130,5.0,9.0,53,0.00,,,0.00,Wunderground v.1.15,2015-01-29 17:59:00,
2015-01-29 11:03:00,66.7,46.9,30.02,SE,141,9.0,11.0,49,0.00,,,0.00,Wunderground v.1.15,2015-01-29 18:03:00,
2015-01-29 11:04:00,66.8,47.0,30.02,SSE,148,4.0,11.0,49,0.00,,,0.00,Wunderground v.1.15,2015-01-29 18:04:00,
2015-01-29 11:09:00,67.3,46.4,30.01,SE,136,4.0,11.0,47,0.00,,,0.00,Wunderground v.1.15,2015-01-29 18:09:00,
2015-01-29 11:14:00,67.7,47.3,30.01,SE,136,0.0,4.0,48,0.00,,,0.00,Wunderground v.1.15,2015-01-29 18:14:00,
2015-01-29 11:19:00,68.1,46.5,30.01,SE,136,2.0,5.0,46,0.00,,,0.00,Wunderground v.1.15,2015-01-29 18:19:00,
2015-01-29 11:24:00,68.3,46.7,30.01,SE,138,0.0,4.0,46,0.00,,,0.00,Wunderground v.1.15,2015-01-29 18:24:00,
2015-01-29 11:29:00,68.5,46.9,30.01,SE,138,0.0,4.0,46,0.00,,,0.00,Wunderground v.1.15,2015-01-29 18:29:00,
2015-01-29 11:34:00,68.6,47.6,30.01,SE,138,0.0,1.0,47,0.00,,,0.00,Wunderground v.1.15,2015-01-29 18:34:00,
2015-01-29 11:39:00,68.7,47.1,30.01,SE,138,0.0,1.0,46,0.00,,,0.00,Wunderground v.1.15,2015-01-29 18:39:00,
2015-01-29 11:44:00,68.8,47.2,30.01,SE,138,0.0,0.0,46,0.00,,,0.00,Wunderground v.1.15,2015-01-29 18:44:00,
2015-01-29 11:49:00,68.8,47.2,30.00,SE,138,0.0,0.0,46,0.00,,,0.00,Wunderground v.1.15,2015-01-29 18:49:00,
2015-01-29 11:54:00,68.8,47.2,30.00,SE,138,0.0,0.0,46,0.00,,,0.00,Wunderground v.1.15,2015-01-29 18:54:00,
2015-01-29 11:59:00,68.9,46.7,30.00,SE,138,0.0,0.0,45,0.00,,,0.00,Wunderground v.1.15,2015-01-29 18:59:00,
2015-01-29 12:04:00,69.0,46.2,30.00,SE,138,0.0,0.0,44,0.00,,,0.00,Wunderground v.1.15,2015-01-29 19:04:00,
2015-01-29 12:09:00,69.1,46.3,30.00,SE,138,0.0,0.0,44,0.00,,,0.00,Wunderground v.1.15,2015-01-29 19:09:00,
2015-01-29 12:14:00,69.2,47.5,30.00,SE,138,0.0,2.0,46,0.00,,,0.00,Wunderground v.1.15,2015-01-29 19:14:00,
2015-01-29 12:19:00,69.2,48.1,30.00,SE,138,0.0,2.0,47,0.00,,,0.00,Wunderground v.1.15,2015-01-29 19:19:00,
2015-01-29 12:24:00,69.2,47.5,29.99,SE,138,0.0,2.0,46,0.00,,,0.00,Wunderground v.1.15,2015-01-29 19:24:00,
2015-01-29 12:29:00,69.2,47.5,29.99,SE,138,0.0,2.0,46,0.00,,,0.00,Wunderground v.1.15,2015-01-29 19:29:00,
2015-01-29 12:34:00,69.2,48.1,29.99,SE,138,0.0,3.0,47,0.00,,,0.00,Wunderground v.1.15,2015-01-29 19:34:00,
2015-01-29 12:39:00,69.3,49.9,29.99,SE,138,0.0,5.0,50,0.00,,,0.00,Wunderground v.1.15,2015-01-29 19:39:00,
2015-01-29 12:44:00,69.2,49.8,29.98,SE,143,2.0,5.0,50,0.00,,,0.00,Wunderground v.1.15,2015-01-29 19:44:00,
2015-01-29 12:49:00,68.9,50.0,29.98,SE,143,0.0,1.0,51,0.00,,,0.00,Wunderground v.1.15,2015-01-29 19:49:00,
2015-01-29 12:54:00,68.8,49.9,29.98,SE,143,0.0,3.0,51,0.00,,,0.00,Wunderground v.1.15,2015-01-29 19:54:00,
2015-01-29 12:59:00,68.6,50.3,29.98,SE,143,0.0,0.0,52,0.00,,,0.00,Wunderground v.1.15,2015-01-29 19:59:00,
2015-01-29 13:04:00,68.6,49.7,29.98,SE,143,0.0,0.0,51,0.00,,,0.00,Wunderground v.1.15,2015-01-29 20:04:00,
2015-01-29 13:09:00,68.6,49.7,29.98,SE,143,0.0,0.0,51,0.00,,,0.00,Wunderground v.1.15,2015-01-29 20:09:00,
2015-01-29 13:14:00,68.6,50.3,29.98,SE,143,0.0,0.0,52,0.00,,,0.00,Wunderground v.1.15,2015-01-29 20:14:00,
2015-01-29 13:19:00,68.6,50.8,29.98,SE,138,0.0,0.0,53,0.00,,,0.00,Wunderground v.1.15,2015-01-29 20:19:00,
2015-01-29 13:24:00,68.6,50.8,29.98,SE,138,1.0,3.0,53,0.00,,,0.00,Wunderground v.1.15,2015-01-29 20:24:00,
2015-01-29 13:29:00,68.5,50.7,29.98,SE,138,1.0,1.0,53,0.00,,,0.00,Wunderground v.1.15,2015-01-29 20:29:00,
2015-01-29 13:35:00,68.3,51.0,29.98,SE,137,1.0,5.0,54,0.00,,,0.00,Wunderground v.1.15,2015-01-29 20:35:00,
2015-01-29 13:40:00,68.2,51.4,29.97,ESE,123,3.0,4.0,55,0.00,,,0.00,Wunderground v.1.15,2015-01-29 20:40:00,
2015-01-29 13:45:00,68.1,53.2,29.97,ESE,111,2.0,5.0,59,0.00,,,0.00,Wunderground v.1.15,2015-01-29 20:45:00,
2015-01-29 13:50:00,67.9,54.0,29.97,ESE,110,2.0,2.0,61,0.00,,,0.00,Wunderground v.1.15,2015-01-29 20:50:00,
2015-01-29 13:54:00,67.6,54.1,29.97,ESE,110,2.0,4.0,62,0.00,,,0.00,Wunderground v.1.15,2015-01-29 20:54:00,
2015-01-29 13:59:00,67.4,53.9,29.97,East,96,1.0,3.0,62,0.00,,,0.00,Wunderground v.1.15,2015-01-29 20:59:00,
2015-01-29 14:05:00,67.1,53.6,29.97,East,91,3.0,6.0,62,0.00,,,0.00,Wunderground v.1.15,2015-01-29 21:05:00,
2015-01-29 14:10:00,66.7,52.8,29.97,ENE,78,0.0,2.0,61,0.00,,,0.00,Wunderground v.1.15,2015-01-29 21:10:00,
2015-01-29 14:15:00,66.5,53.1,29.97,ENE,78,0.0,3.0,62,0.00,,,0.00,Wunderground v.1.15,2015-01-29 21:15:00,
2015-01-29 14:20:00,66.5,52.6,29.96,ENE,78,0.0,1.0,61,0.00,,,0.00,Wunderground v.1.15,2015-01-29 21:20:00,
2015-01-29 14:25:00,66.4,52.5,29.96,ENE,78,0.0,4.0,61,0.00,,,0.00,Wunderground v.1.15,2015-01-29 21:25:00,
2015-01-29 14:30:00,66.5,52.6,29.96,ENE,78,0.0,0.0,61,0.00,,,0.00,Wunderground v.1.15,2015-01-29 21:30:00,
2015-01-29 14:35:00,66.5,52.6,29.96,ENE,78,0.0,1.0,61,0.00,,,0.00,Wunderground v.1.15,2015-01-29 21:35:00,
2015-01-29 14:40:00,66.6,52.7,29.96,ENE,78,0.0,0.0,61,0.00,,,0.00,Wunderground v.1.15,2015-01-29 21:40:00,
2015-01-29 14:45:00,66.7,51.9,29.96,ENE,78,0.0,1.0,59,0.00,,,0.00,Wunderground v.1.15,2015-01-29 21:45:00,
2015-01-29 14:50:00,66.8,52.5,29.95,ENE,78,0.0,0.0,60,0.00,,,0.00,Wunderground v.1.15,2015-01-29 21:50:00,
2015-01-29 14:55:00,67.0,53.1,29.95,ENE,78,0.0,0.0,61,0.00,,,0.00,Wunderground v.1.15,2015-01-29 21:55:00,
2015-01-29 15:00:00,67.1,52.3,29.95,ENE,78,0.0,0.0,59,0.00,,,0.00,Wunderground v.1.15,2015-01-29 22:00:00,
2015-01-29 15:05:00,67.3,52.5,29.95,ENE,78,0.0,0.0,59,0.00,,,0.00,Wunderground v.1.15,2015-01-29 22:05:00,
2015-01-29 15:10:00,67.4,52.1,29.95,ENE,78,0.0,0.0,58,0.00,,,0.00,Wunderground v.1.15,2015-01-29 22:10:00,
2015-01-29 15:15:00,67.5,52.2,29.94,ENE,78,0.0,2.0,58,0.00,,,0.00,Wunderground v.1.15,2015-01-29 22:15:00,
2015-01-29 15:20:00,67.6,51.8,29.94,ENE,78,4.0,4.0,57,0.00,,,0.00,Wunderground v.1.15,2015-01-29 22:20:00,
2015-01-29 15:25:00,67.6,51.8,29.94,ENE,78,0.0,4.0,57,0.00,,,0.00,Wunderground v.1.15,2015-01-29 22:25:00,
2015-01-29 15:30:00,67.6,51.3,29.94,ENE,78,0.0,3.0,56,0.00,,,0.00,Wunderground v.1.15,2015-01-29 22:30:00,
2015-01-29 15:35:00,67.5,51.7,29.94,ENE,78,0.0,3.0,57,0.00,,,0.00,Wunderground v.1.15,2015-01-29 22:35:00,
2015-01-29 15:40:00,67.5,51.2,29.94,ENE,78,0.0,0.0,56,0.00,,,0.00,Wunderground v.1.15,2015-01-29 22:40:00,
2015-01-29 15:45:00,67.4,51.2,29.94,ENE,78,0.0,0.0,56,0.00,,,0.00,Wunderground v.1.15,2015-01-29 22:45:00,
2015-01-29 15:50:00,67.3,51.5,29.94,ENE,78,0.0,0.0,57,0.00,,,0.00,Wunderground v.1.15,2015-01-29 22:50:00,
2015-01-29 15:55:00,67.3,51.5,29.94,ENE,78,0.0,0.0,57,0.00,,,0.00,Wunderground v.1.15,2015-01-29 22:55:00,
2015-01-29 16:00:00,67.3,53.4,29.94,ENE,78,0.0,0.0,61,0.00,,,0.00,Wunderground v.1.15,2015-01-29 23:00:00,
2015-01-29 16:05:00,67.2,54.2,29.93,ENE,78,0.0,0.0,63,0.00,,,0.00,Wunderground v.1.15,2015-01-29 23:05:00,
2015-01-29 16:10:00,67.1,54.9,29.93,ENE,78,0.0,0.0,65,0.00,,,0.00,Wunderground v.1.15,2015-01-29 23:10:00,
2015-01-29 16:15:00,67.0,54.8,29.93,ENE,78,0.0,0.0,65,0.00,,,0.00,Wunderground v.1.15,2015-01-29 23:15:00,
2015-01-29 16:20:00,66.7,54.6,29.93,ENE,78,0.0,0.0,65,0.00,,,0.00,Wunderground v.1.15,2015-01-29 23:20:00,
2015-01-29 16:25:00,66.3,53.8,29.93,ENE,78,0.0,1.0,64,0.00,,,0.00,Wunderground v.1.15,2015-01-29 23:25:00,
2015-01-29 16:30:00,66.1,53.6,29.94,ENE,78,0.0,0.0,64,0.00,,,0.00,Wunderground v.1.15,2015-01-29 23:30:00,
2015-01-29 16:35:00,65.9,53.4,29.94,ENE,78,1.0,1.0,64,0.00,,,0.00,Wunderground v.1.15,2015-01-29 23:35:00,
2015-01-29 16:40:00,65.6,52.2,29.94,ENE,78,3.0,5.0,62,0.00,,,0.00,Wunderground v.1.15,2015-01-29 23:40:00,
2015-01-29 16:46:00,65.4,50.7,29.94,North,349,1.0,6.0,59,0.00,,,0.00,Wunderground v.1.15,2015-01-29 23:46:00,
2015-01-29 16:51:00,65.3,50.6,29.94,WNW,292,5.0,9.0,59,0.00,,,0.00,Wunderground v.1.15,2015-01-29 23:51:00,
2015-01-29 16:56:00,65.2,51.0,29.94,West,279,1.0,11.0,60,0.00,,,0.00,Wunderground v.1.15,2015-01-29 23:56:00,
2015-01-29 17:01:00,65.1,50.4,29.94,West,276,9.0,10.0,59,0.00,,,0.00,Wunderground v.1.15,2015-01-30 00:01:00,
2015-01-29 17:06:00,64.9,50.2,29.93,West,279,8.0,10.0,59,0.00,,,0.00,Wunderground v.1.15,2015-01-30 00:06:00,
2015-01-29 17:11:00,64.7,51.4,29.93,WNW,283,1.0,8.0,62,0.00,,,0.00,Wunderground v.1.15,2015-01-30 00:11:00,
2015-01-29 17:16:00,64.3,52.3,29.94,WNW,296,2.0,8.0,65,0.00,,,0.00,Wunderground v.1.15,2015-01-30 00:16:00,
2015-01-29 17:21:00,64.0,52.4,29.94,WNW,286,2.0,8.0,66,0.00,,,0.00,Wunderground v.1.15,2015-01-30 00:21:00,
2015-01-29 17:26:00,63.7,52.1,29.94,WNW,301,4.0,11.0,66,0.00,,,0.00,Wunderground v.1.15,2015-01-30 00:26:00,
2015-01-29 17:31:00,63.4,51.8,29.95,NW,308,2.0,11.0,66,0.00,,,0.00,Wunderground v.1.15,2015-01-30 00:31:00,
2015-01-29 17:36:00,63.2,52.1,29.95,WNW,296,7.0,11.0,67,0.00,,,0.00,Wunderground v.1.15,2015-01-30 00:36:00,
2015-01-29 17:41:00,63.0,52.3,29.96,NW,305,3.0,9.0,68,0.00,,,0.00,Wunderground v.1.15,2015-01-30 00:41:00,
2015-01-29 17:46:00,62.7,52.0,29.95,NW,307,4.0,9.0,68,0.00,,,0.00,Wunderground v.1.15,2015-01-30 00:46:00,
2015-01-29 17:51:00,62.5,52.2,29.95,NW,307,2.0,10.0,69,0.00,,,0.00,Wunderground v.1.15,2015-01-30 00:51:00,
2015-01-29 17:56:00,62.2,51.9,29.95,NW,307,2.0,10.0,69,0.00,,,0.00,Wunderground v.1.15,2015-01-30 00:56:00,
2015-01-29 18:01:00,61.9,51.6,29.96,WNW,284,8.0,8.0,69,0.00,,,0.00,Wunderground v.1.15,2015-01-30 01:01:00,
2015-01-29 18:06:00,61.7,51.4,29.96,WNW,300,4.0,9.0,69,0.00,,,0.00,Wunderground v.1.15,2015-01-30 01:06:00,
2015-01-29 18:11:00,61.5,52.0,29.96,NW,309,5.0,7.0,71,0.00,,,0.00,Wunderground v.1.15,2015-01-30 01:11:00,
2015-01-29 18:16:00,61.2,52.1,29.97,WNW,301,7.0,9.0,72,0.00,,,0.00,Wunderground v.1.15,2015-01-30 01:16:00,
2015-01-29 18:21:00,60.9,51.8,29.97,NW,321,8.0,9.0,72,0.00,,,0.00,Wunderground v.1.15,2015-01-30 01:21:00,
2015-01-29 18:26:00,60.7,52.0,29.98,West,272,7.0,12.0,73,0.00,,,0.00,Wunderground v.1.15,2015-01-30 01:26:00,
2015-01-29 18:31:00,60.5,52.2,29.98,WNW,298,6.0,9.0,74,0.00,,,0.00,Wunderground v.1.15,2015-01-30 01:31:00,
2015-01-29 18:36:00,60.2,52.2,29.98,WNW,287,5.0,11.0,75,0.00,,,0.00,Wunderground v.1.15,2015-01-30 01:36:00,
2015-01-29 18:41:00,60.0,52.1,29.99,NW,311,2.0,7.0,75,0.00,,,0.00,Wunderground v.1.15,2015-01-30 01:41:00,
2015-01-29 18:46:00,59.8,52.2,29.99,NW,310,5.0,11.0,76,0.00,,,0.00,Wunderground v.1.15,2015-01-30 01:46:00,
2015-01-29 18:51:00,59.5,51.9,29.99,WNW,284,9.0,9.0,76,0.00,,,0.00,Wunderground v.1.15,2015-01-30 01:51:00,
2015-01-29 18:56:00,59.3,52.1,29.99,NW,313,4.0,13.0,77,0.00,,,0.00,Wunderground v.1.15,2015-01-30 01:56:00,
2015-01-29 19:01:00,59.1,52.2,29.99,WNW,294,3.0,7.0,78,0.00,,,0.00,Wunderground v.1.15,2015-01-30 02:01:00,
2015-01-29 19:06:00,59.0,52.5,29.99,WNW,286,4.0,11.0,79,0.00,,,0.00,Wunderground v.1.15,2015-01-30 02:06:00,
2015-01-29 19:11:00,58.8,52.3,29.99,WNW,292,7.0,7.0,79,0.00,,,0.00,Wunderground v.1.15,2015-01-30 02:11:00,
2015-01-29 19:16:00,58.6,52.1,30.00,WNW,282,9.0,11.0,79,0.00,,,0.00,Wunderground v.1.15,2015-01-30 02:16:00,
2015-01-29 19:21:00,58.5,52.0,30.00,WNW,287,0.0,8.0,79,0.00,,,0.00,Wunderground v.1.15,2015-01-30 02:21:00,
2015-01-29 19:26:00,58.4,51.9,30.00,WNW,287,4.0,8.0,79,0.00,,,0.00,Wunderground v.1.15,2015-01-30 02:26:00,
2015-01-29 19:31:00,58.4,51.9,30.00,WNW,288,4.0,9.0,79,0.00,,,0.00,Wunderground v.1.15,2015-01-30 02:31:00,
2015-01-29 19:36:00,58.3,51.8,30.00,West,280,1.0,9.0,79,0.00,,,0.00,Wunderground v.1.15,2015-01-30 02:36:00,
2015-01-29 19:41:00,58.2,52.1,30.00,WNW,288,5.0,10.0,80,0.00,,,0.00,Wunderground v.1.15,2015-01-30 02:41:00,
2015-01-29 19:46:00,58.1,52.0,30.00,WNW,302,0.0,10.0,80,0.00,,,0.00,Wunderground v.1.15,2015-01-30 02:46:00,
2015-01-29 19:51:00,58.0,51.9,30.00,WNW,300,2.0,2.0,80,0.00,,,0.00,Wunderground v.1.15,2015-01-30 02:51:00,
2015-01-29 19:56:00,58.0,51.9,30.00,WNW,299,0.0,2.0,80,0.00,,,0.00,Wunderground v.1.15,2015-01-30 02:56:00,
2015-01-29 20:01:00,57.8,51.7,30.00,WNW,296,0.0,1.0,80,0.00,,,0.00,Wunderground v.1.15,2015-01-30 03:01:00,
2015-01-29 20:06:00,57.7,51.6,30.00,WNW,297,0.0,3.0,80,0.00,,,0.00,Wunderground v.1.15,2015-01-30 03:06:00,
2015-01-29 20:11:00,57.6,51.5,30.00,WNW,291,0.0,1.0,80,0.00,,,0.00,Wunderground v.1.15,2015-01-30 03:11:00,
2015-01-29 20:16:00,57.5,51.4,30.01,WNW,287,1.0,3.0,80,0.00,,,0.00,Wunderground v.1.15,2015-01-30 03:16:00,
2015-01-29 20:21:00,57.5,51.4,30.01,WNW,286,1.0,3.0,80,0.00,,,0.00,Wunderground v.1.15,2015-01-30 03:21:00,
2015-01-29 20:26:00,57.4,51.3,30.01,West,281,1.0,3.0,80,0.00,,,0.00,Wunderground v.1.15,2015-01-30 03:26:00,
2015-01-29 20:31:00,57.4,51.3,30.01,West,281,0.0,4.0,80,0.00,,,0.00,Wunderground v.1.15,2015-01-30 03:31:00,
2015-01-29 20:36:00,57.3,51.2,30.00,West,278,2.0,6.0,80,0.00,,,0.00,Wunderground v.1.15,2015-01-30 03:36:00,
2015-01-29 20:41:00,57.3,51.5,30.00,West,277,1.0,2.0,81,0.00,,,0.00,Wunderground v.1.15,2015-01-30 03:41:00,
2015-01-29 20:46:00,57.3,51.5,30.00,WNW,284,0.0,8.0,81,0.00,,,0.00,Wunderground v.1.15,2015-01-30 03:46:00,
2015-01-29 20:51:00,57.2,51.4,30.00,WNW,284,0.0,2.0,81,0.00,,,0.00,Wunderground v.1.15,2015-01-30 03:51:00,
2015-01-29 20:56:00,57.2,51.8,30.00,WNW,284,0.0,2.0,82,0.00,,,0.00,Wunderground v.1.15,2015-01-30 03:56:00,
2015-01-29 21:02:00,57.1,51.7,30.00,WNW,284,0.0,0.0,82,0.00,,,0.00,Wunderground v.1.15,2015-01-30 04:02:00,
2015-01-29 21:07:00,57.1,51.7,30.00,WNW,284,0.0,0.0,82,0.00,,,0.00,Wunderground v.1.15,2015-01-30 04:07:00,
2015-01-29 21:12:00,57.0,51.6,30.00,WNW,284,0.0,0.0,82,0.00,,,0.00,Wunderground v.1.15,2015-01-30 04:12:00,
2015-01-29 21:17:00,56.9,51.8,30.00,WNW,284,0.0,0.0,83,0.00,,,0.00,Wunderground v.1.15,2015-01-30 04:17:00,
2015-01-29 21:22:00,56.8,51.7,30.00,WNW,284,0.0,0.0,83,0.00,,,0.00,Wunderground v.1.15,2015-01-30 04:22:00,
2015-01-29 21:27:00,56.7,51.9,30.00,WNW,284,0.0,0.0,84,0.00,,,0.00,Wunderground v.1.15,2015-01-30 04:27:00,
2015-01-29 21:32:00,56.7,51.9,29.99,WNW,284,0.0,0.0,84,0.00,,,0.00,Wunderground v.1.15,2015-01-30 04:32:00,
2015-01-29 21:37:00,56.6,52.1,29.99,WNW,284,0.0,0.0,85,0.00,,,0.00,Wunderground v.1.15,2015-01-30 04:37:00,
2015-01-29 21:42:00,56.6,52.1,29.99,WNW,284,0.0,0.0,85,0.00,,,0.00,Wunderground v.1.15,2015-01-30 04:42:00,
2015-01-29 21:47:00,56.5,52.4,29.99,WNW,284,0.0,0.0,86,0.00,,,0.00,Wunderground v.1.15,2015-01-30 04:47:00,
2015-01-29 21:52:00,56.3,52.2,29.98,WNW,284,0.0,0.0,86,0.00,,,0.00,Wunderground v.1.15,2015-01-30 04:52:00,